STARLINK-1752, 46338

Orbit data source: Space-Track

STARLINK-1752, 46338 is a payload satellite owned by SpaceX/Seattle (US) in LEO that was launched on Thu, 03 Sep 2020 UTC via an FALCON 9 launch vehicle from the Air Force Eastern Test Range (AFETR). Payload-class satellites include a variety of spacecraft equipped with specific instruments for various scientific and technological missions. These include communications satellites like Starlink; space stations such as the ISS; scientific satellites like the Hubble; Earth observation satellites from companies like Planet Labs, Umbra, and HawkEye 360; GPS; miniature CubeSats for education and research; and military/defense satellites.

Loading next visibility...
Identifier
46338, 2020-062P
Orbit
LEO
Last TLE update
16 hours ago
Origin
Manufacturer
SpaceX/Seattle
Mission
Operational Commercial Communications
Bus & Motor
STARLINK, Unknown motor
Mass
260 kg wet, ~248 kg dry
Launch date (UTC)
2020-09-03 (5 years ago)
Launch vehicle
FALCON 9
Launch site
Air Force Eastern Test Range (AFETR)
Object type
Payload
Rocket body
Debris
Shape & HBR
Box + 1 Pan, 8.86 m
Radar Cross Section
13.562 m², Large (>1 m²)

Expand to show TLE details & history

TLE from 16 hours ago
0 STARLINK-1752
1 46338U 20062P   25191.78662219  .00001208  00000-0  10000-3 0  9998
2 46338  53.0569  22.5633 0001762 133.3445 226.7828 15.06394973267843
Epoch: 2025-07-10T18:52Z
TLE epoch observation values (Epoch: 2025-07-10T18:52:44.157Z)
Latitude
0.011°
Longitude
170.43964°
Altitude
548.941 km
Speed
7.588 km/s
True Right ascension
01h 30m 17s
True Declination
0° 00' 39"
Sunlit
Object was in daylight at epoch
Visualization orbit readout
Latitude
52.52848°
Longitude
-89.96098°
Altitude
552.653 km
Speed
7.592 km/s
Apparent Right ascension
09h 58m 23s
Apparent Declination
9° 40' 51"
Sunlit
Object is in daylight
Visualization observer readout
Local Sidereal Time
23:32:01
Azimuth
28.898° NE
Elevation
-35.869°
Doppler factor
1
Orbital elements
Apogee altitude
548.718 km
Perigee altitude
546.277 km
Semi-major axis
6,925.634 km
Eccentricity
0.00018
Inclination
53.0569°
RAAN
22.5633°
Arg. of periapsis
133.3445°
True anomaly
Unknown
Mean anomaly
226.7828°
Eccentric anomaly
Unknown
Mean motion
3.76577 °/min
Orbital period
95.6 mins
BSTAR
0.0001
Loading maneuver chart data...
Loading SW <> Apogee altitude chart data...
Loading historical data...
Loading historical data...
Loading historical data...
Loading historical data...
Loading historical data...
Loading historical data...
Loading historical data...

STARLINK-1752 Visibility forecast

Observer location: undefined°, undefined°

Span
Click to sort rows by Start time (UTC) header in descending order
Start Az.
Max El. time (UTC)
Max El. Az.
Max El.
End time (UTC)
End Az.
5 mins2025-07-11 14:08:01.468Z165.788° S2025-07-11 14:10:01.468Z135.264° SSE16.358°2025-07-11 14:13:01.468Z86.888° E
6 mins2025-07-11 15:47:01.468Z244.963° WSW2025-07-11 15:50:01.468Z358.722° N40.808°2025-07-11 15:53:01.468Z43.794° NE
4 mins2025-07-11 17:28:01.468Z311.469° NW2025-07-11 17:30:01.468Z347.122° N17.184°2025-07-11 17:32:01.468Z19.767° NNE
5 mins2025-07-11 20:49:01.468Z339.816° N2025-07-11 20:51:01.468Z17.672° NNE22.714°2025-07-11 20:54:01.468Z75.076° E
6 mins2025-07-11 22:29:01.468Z297.672° NW2025-07-11 22:31:01.468Z233.563° WSW42.117°2025-07-11 22:35:01.468Z141.935° SSE
|